Location: Gollag?dem
(16.8053°N, 80.8024°E)
Time: 10:19:17
(UTC+00:00)

Okean-O - Pass Details

Date: 13 August 2020
Orbit: 639 x 640 km, 98.2° (Epoch: 18 September)

Event Time Altitude Azimuth Distance (km) Brightness Sun altitude
Rises 13:32:28 0° 177° (S) 2,931 5.8 -7.6°
Reaches altitude 10° 13:34:42 10° 181° (S) 2,023 5.0 -8.1°
Maximum altitude 13:39:00 54° 259° (WSW) 776 3.5 -9.1°
Drops below altitude 10° 13:43:19 10° 337° (NNW) 2,027 5.8 -10.1°
Sets 13:45:34 0° 341° (NNW) 2,937 6.6 -10.6°
